Weather History for Klawock, AK

Change the Weather History Date:

Friday, April 4, 2014

  Actual Average Record
Temperature  
Mean Temperature 36 °F -  
Max Temperature 45 °F 45 °F 55 °F (2013)
Min Temperature 28 °F 30 °F 24 °F (2003)
Degree Days  
Heating Degree Days 29    
Moisture  
Dew Point 31 °F    
Average Humidity 86    
Maximum Humidity 100    
Minimum Humidity 55    
Precipitation  
Precipitation 0.02 in - - ()
Sea Level Pressure  
Sea Level Pressure 29.70 in    
Wind  
Wind Speed 1 mph (NNE)    
Max Wind Speed 7 mph    
Max Gust Speed -    
Visibility 8 miles    
Events Fog , Rain    
Averages and records for this station are not official NWS values.
T = Trace of Precipitation, MM = Missing Value Source: NWS Daily Summary

Daily Weather History Graph

Daily Weather History Graph

Search for Another Location

Airport:

Trip Planner

Search our weather history database for the weather conditions in past years. The results will help you decide how hot, cold, wet, or windy it might be!

Date:

Astronomy

Apr. 04, 2014 Rise Set
Actual Time 6:15 AM AKDT 7:36 PM AKDT
Civil Twilight 5:37 AM AKDT 8:14 PM AKDT
Nautical Twilight 4:50 AM AKDT 9:01 PM AKDT
Astronomical Twilight 3:58 AM AKDT 9:54 PM AKDT
Moon 8:59 AM AKDT (4/4) 12:38 AM AKDT (4/4)
Length of Visible Light 14h 37m
Length of Day
13h 21m
Waxing Crescent, 27% of the Moon is Illuminated
Apr 4
Waxing Crescent
Apr 7
First Quarter
Apr 14
Full
Apr 21
Last Quarter
Apr 28
New

Hourly Weather History & Observations

Time (AKDT) Temp. Windchill Dew Point Humidity Pressure Visibility Wind Dir Wind Speed Gust Speed Precip Events Conditions
12:53 AM 28.9 °F - 28.0 °F 96% 29.73 in 10.0 mi Calm Calm - N/A   Partly Cloudy
1:16 AM 30.0 °F - 28.0 °F 92% 29.73 in 9.0 mi Calm Calm - N/A   Scattered Clouds
1:22 AM 28.9 °F - 28.0 °F 96% 29.73 in 2.5 mi Calm Calm - N/A   Mostly Cloudy
1:25 AM 28.9 °F - 28.0 °F 96% 29.72 in 1.2 mi Calm Calm - N/A   Mostly Cloudy
1:33 AM 28.9 °F - 28.0 °F 96% 29.72 in 0.2 mi Calm Calm - N/A Fog Light Freezing Fog
1:53 AM 28.9 °F - 28.0 °F 96% 29.73 in 1.0 mi Calm Calm - N/A   Overcast
1:57 AM 28.9 °F - 28.0 °F 96% 29.72 in 2.0 mi Calm Calm - N/A   Overcast
2:12 AM 28.9 °F - 28.0 °F 96% 29.73 in 1.2 mi Calm Calm - N/A   Overcast
2:18 AM 28.9 °F - 28.0 °F 96% 29.73 in 1.5 mi Calm Calm - N/A   Overcast
2:31 AM 28.9 °F - 28.0 °F 96% 29.72 in 3.0 mi Calm Calm - N/A   Overcast
2:53 AM 28.9 °F - 28.0 °F 96% 29.73 in 10.0 mi Calm Calm - N/A   Overcast
3:37 AM 28.9 °F - 28.0 °F 96% 29.72 in 10.0 mi Calm Calm - N/A   Scattered Clouds
3:53 AM 28.0 °F - 27.0 °F 96% 29.72 in 10.0 mi Calm Calm - N/A   Clear
4:53 AM 28.0 °F - 26.1 °F 92% 29.72 in 4.0 mi Calm Calm - N/A   Mostly Cloudy
5:53 AM 28.9 °F - 28.0 °F 96% 29.71 in 10.0 mi Calm Calm - N/A   Overcast
6:53 AM 30.0 °F - 28.9 °F 96% 29.71 in 10.0 mi Calm Calm - N/A   Overcast
7:53 AM 33.1 °F - 33.1 °F 100% 29.71 in 10.0 mi Calm Calm - N/A   Overcast
8:53 AM 35.1 °F - 34.0 °F 96% 29.71 in 10.0 mi Calm Calm - N/A   Overcast
9:16 AM 37.0 °F - 34.0 °F 89% 29.71 in 10.0 mi Calm Calm - N/A   Overcast
9:41 AM 39.0 °F 36.8 °F 35.1 °F 86% 29.71 in 10.0 mi ENE 3.5 mph - N/A   Overcast
9:53 AM 37.9 °F 35.5 °F 34.0 °F 86% 29.71 in 10.0 mi ENE 3.5 mph - N/A   Mostly Cloudy
10:53 AM 39.9 °F 37.8 °F 30.9 °F 70% 29.72 in 10.0 mi Variable 3.5 mph - 0.00 in   Mostly Cloudy
11:53 AM 41.0 °F 39.0 °F 33.1 °F 73% 29.71 in 9.0 mi Variable 3.5 mph - 0.00 in Rain Light Rain
12:53 PM 41.0 °F 36.4 °F 34.0 °F 76% 29.71 in 10.0 mi SSW 6.9 mph - 0.00 in Rain Light Rain
1:04 PM 41.0 °F 38.0 °F 35.1 °F 79% 29.70 in 6.0 mi Variable 4.6 mph - 0.01 in Rain Light Rain
1:53 PM 43.0 °F 39.5 °F 32.0 °F 65% 29.70 in 10.0 mi Variable 5.8 mph - 0.01 in   Overcast
2:53 PM 44.1 °F 41.5 °F 30.0 °F 58% 29.70 in 10.0 mi Variable 4.6 mph - N/A   Mostly Cloudy
3:53 PM 44.1 °F 41.5 °F 28.9 °F 55% 29.69 in 10.0 mi Variable 4.6 mph - N/A   Mostly Cloudy
4:53 PM 43.0 °F 39.5 °F 30.9 °F 62% 29.69 in 10.0 mi Variable 5.8 mph - N/A   Overcast
5:53 PM 41.0 °F - 34.0 °F 76% 29.68 in 10.0 mi Calm Calm - 0.00 in Rain Light Rain
6:53 PM 41.0 °F 37.1 °F 33.1 °F 73% 29.67 in 10.0 mi Variable 5.8 mph - 0.00 in   Overcast
7:53 PM 39.0 °F 36.8 °F 36.0 °F 89% 29.66 in 10.0 mi NE 3.5 mph - 0.01 in Rain Light Rain
8:53 PM 37.9 °F 34.4 °F 36.0 °F 93% 29.66 in 10.0 mi NNE 4.6 mph - 0.00 in   Overcast
9:53 PM 37.9 °F - 35.1 °F 89% 29.65 in 10.0 mi Calm Calm - 0.00 in   Overcast
10:06 PM 39.0 °F 36.8 °F 35.1 °F 86% 29.64 in 10.0 mi NNE 3.5 mph - N/A   Overcast
10:15 PM 39.0 °F 35.7 °F 35.1 °F 86% 29.64 in 10.0 mi North 4.6 mph - N/A   Overcast
10:53 PM 39.0 °F 36.8 °F 34.0 °F 82% 29.63 in 10.0 mi NNW 3.5 mph - 0.00 in   Overcast
11:53 PM 39.9 °F 36.7 °F 35.1 °F 83% 29.61 in 10.0 mi NNE 4.6 mph - 0.00 in Rain Light Rain